JCSAT-13

Last updated on Wed Oct 15 2025 00:02:46 GMT+0000 (Coordinated Universal Time)

1 38331U 12023A 25287.29696497 -.00000370 00000+0 00000+0 0 9991 2 38331 0.0413 75.7885 0002599 141.5238 36.7074 1.00269982 49071
UTC large
Height (km)
Speed (km/s)
/
Latitude / Longitude
Inclination (degrees)
Orbital Period (minutes)
Azimuth
Elevation
Range (km)
Doppler Factor

Next 0 passes for location: London (51.5072 / 0.1276)

Sorry there are no passes over London.